Location: Newark
(52.2090°N, 4.1550°W)
Time: 21:33:17
(UTC+00:00)

Transit 2A - Pass Details

Date: 29 October 2019
Orbit: 601 x 957 km, 66.7° (Epoch: 17 November)

Event Time Altitude Azimuth Distance (km) Brightness Sun altitude
Rises 18:39:06 0° 234° (SW) 3,238 10.2 -16.6°
Reaches altitude 10° 18:41:40 10° 240° (WSW) 2,255 9.3 -17.0°
Maximum altitude 18:46:37 50° 316° (NW) 881 6.6 -17.7°
Enters shadow 18:50:34 14° 30° (NNE) 1,840 7.7 -18.3°
